Weather History for KCKC - March, 2014

Change the Weather History Date:

Sunday, March 30, 2014

  Actual Average Record
Temperature  
Mean Temperature 34 °F -  
Max Temperature 46 °F 36 °F 51 °F (2005)
Min Temperature 21 °F 19 °F 5 °F (2011)
Degree Days  
Heating Degree Days 32    
Moisture  
Dew Point 22 °F    
Average Humidity 62    
Maximum Humidity 75    
Minimum Humidity 46    
Precipitation  
Precipitation 0.00 in - - ()
Sea Level Pressure  
Sea Level Pressure 29.92 in    
Wind  
Wind Speed 5 mph (SSE)    
Max Wind Speed 15 mph    
Max Gust Speed 22 mph    
Visibility 10 miles    
Events      
Averages and records for this station are not official NWS values.
T = Trace of Precipitation, MM = Missing Value Source: NWS Daily Summary

Daily Weather History Graph

Daily Weather History Graph

Search for Another Location

Airport or City:

Trip Planner

Search our weather history database for the weather conditions in past years. The results will help you decide how hot, cold, wet, or windy it might be!

Date:

Astronomy

Mar. 30, 2014 Rise Set
Actual Time 6:43 AM CDT 7:28 PM CDT
Civil Twilight 6:12 AM CDT 8:00 PM CDT
Nautical Twilight 5:35 AM CDT 8:37 PM CDT
Astronomical Twilight 4:56 AM CDT 9:16 PM CDT
Moon 6:30 AM CDT (3/30) 7:44 PM CDT (3/30)
Length of Visible Light 13h 47m
Length of Day
12h 44m
Waning Crescent, 0% of the Moon is Illuminated
Mar 30
Waning Crescent
Mar 30
New
Apr 7
First Quarter
Apr 15
Full
Apr 22
Last Quarter

Hourly Weather History & Observations

Time (CDT) Temp. Windchill Dew Point Humidity Pressure Visibility Wind Dir Wind Speed Gust Speed Precip Events Conditions
12:13 AM 21.2 °F 13.6 °F 12.2 °F 68% 30.04 in 10.0 mi ESE 5.8 mph - N/A   Clear
12:34 AM 21.2 °F 16.4 °F 12.2 °F 68% 30.04 in 10.0 mi ESE 3.5 mph - N/A   Clear
12:54 AM 21.2 °F 14.9 °F 12.2 °F 68% 30.03 in 10.0 mi SE 4.6 mph - N/A   Scattered Clouds
1:13 AM 21.2 °F 16.4 °F 12.2 °F 68% 30.04 in 10.0 mi SSE 3.5 mph - N/A   Scattered Clouds
1:33 AM 21.2 °F - 12.2 °F 68% 30.02 in 10.0 mi Calm Calm - N/A   Scattered Clouds
1:54 AM 21.2 °F - 14.0 °F 74% 30.03 in 10.0 mi Calm Calm - N/A   Scattered Clouds
2:13 AM 24.8 °F 19.1 °F 15.8 °F 69% 30.01 in 10.0 mi South 4.6 mph - N/A   Overcast
2:33 AM 24.8 °F 20.5 °F 15.8 °F 69% 30.00 in 10.0 mi SSE 3.5 mph - N/A   Overcast
2:54 AM 24.8 °F 20.5 °F 15.8 °F 69% 30.00 in 10.0 mi SSE 3.5 mph - N/A   Overcast
3:13 AM 24.8 °F 17.9 °F 15.8 °F 69% 29.99 in 10.0 mi SSE 5.8 mph - N/A   Mostly Cloudy
3:33 AM 26.6 °F 20.0 °F 17.6 °F 69% 29.98 in 10.0 mi SSE 5.8 mph - N/A   Mostly Cloudy
3:54 AM 26.6 °F 21.2 °F 17.6 °F 69% 29.98 in 10.0 mi SSE 4.6 mph - N/A   Scattered Clouds
4:13 AM 26.6 °F 19.1 °F 17.6 °F 69% 29.96 in 10.0 mi SSE 6.9 mph - N/A   Clear
4:34 AM 26.6 °F 21.2 °F 17.6 °F 69% 29.95 in 10.0 mi SSE 4.6 mph - N/A   Scattered Clouds
4:54 AM 26.6 °F 19.1 °F 17.6 °F 69% 29.94 in 10.0 mi SSE 6.9 mph - N/A   Scattered Clouds
5:13 AM 26.6 °F 21.2 °F 19.4 °F 74% 29.93 in 10.0 mi SSE 4.6 mph - N/A   Clear
5:33 AM 26.6 °F 22.6 °F 19.4 °F 74% 29.92 in 10.0 mi SSE 3.5 mph - N/A   Clear
5:54 AM 26.6 °F 20.0 °F 19.4 °F 74% 29.91 in 10.0 mi SE 5.8 mph - N/A   Clear
6:13 AM 26.6 °F 20.0 °F 19.4 °F 74% 29.91 in 10.0 mi SE 5.8 mph - N/A   Clear
6:33 AM 26.6 °F 20.0 °F 19.4 °F 74% 29.91 in 10.0 mi SSE 5.8 mph - N/A   Clear
6:54 AM 26.6 °F 22.6 °F 19.4 °F 74% 29.90 in 10.0 mi SSE 3.5 mph - N/A   Clear
7:14 AM 26.6 °F 19.1 °F 19.4 °F 74% 29.90 in 10.0 mi SSE 6.9 mph - N/A   Clear
7:33 AM 26.6 °F 20.0 °F 19.4 °F 74% 29.89 in 10.0 mi SE 5.8 mph - N/A   Clear
7:53 AM 28.4 °F 22.2 °F 19.4 °F 69% 29.89 in 10.0 mi SSE 5.8 mph - N/A   Clear
8:13 AM 28.4 °F 21.2 °F 21.2 °F 74% 29.88 in 10.0 mi SSE 6.9 mph - N/A   Clear
8:34 AM 30.2 °F 21.9 °F 21.2 °F 69% 29.88 in 10.0 mi SSE 9.2 mph - N/A   Clear
8:53 AM 30.2 °F 23.4 °F 21.2 °F 69% 29.88 in 10.0 mi SSE 6.9 mph - N/A   Clear
9:14 AM 33.8 °F 27.7 °F 21.2 °F 60% 29.87 in 10.0 mi SSE 6.9 mph - N/A   Clear
9:33 AM 33.8 °F 27.7 °F 21.2 °F 60% 29.87 in 10.0 mi South 6.9 mph - N/A   Clear
9:54 AM 33.8 °F 29.6 °F 23.0 °F 65% 29.87 in 10.0 mi SSE 4.6 mph - N/A   Clear
10:13 AM 33.8 °F 28.6 °F 23.0 °F 65% 29.86 in 10.0 mi South 5.8 mph - N/A   Clear
10:33 AM 37.4 °F 30.3 °F 24.8 °F 60% 29.88 in 10.0 mi South 10.4 mph 17.3 mph N/A   Clear
10:54 AM 39.2 °F 30.8 °F 24.8 °F 56% 29.86 in 10.0 mi South 15.0 mph 21.9 mph N/A   Clear
11:13 AM 39.2 °F 33.0 °F 24.8 °F 56% 29.86 in 10.0 mi SSW 9.2 mph 19.6 mph N/A   Clear
11:33 AM 41.0 °F 33.9 °F 24.8 °F 53% 29.85 in 10.0 mi South 12.7 mph 19.6 mph N/A   Clear
11:54 AM 41.0 °F 33.9 °F 24.8 °F 53% 29.86 in 10.0 mi South 12.7 mph 17.3 mph N/A   Clear
12:13 PM 42.8 °F 37.5 °F 24.8 °F 49% 29.86 in 10.0 mi South 9.2 mph 17.3 mph N/A   Clear
12:33 PM 42.8 °F 38.6 °F 24.8 °F 49% 29.85 in 10.0 mi SSW 6.9 mph - N/A   Clear
12:54 PM 42.8 °F 38.6 °F 24.8 °F 49% 29.86 in 10.0 mi South 6.9 mph - N/A   Clear
1:13 PM 42.8 °F 38.6 °F 24.8 °F 49% 29.86 in 10.0 mi South 6.9 mph - N/A   Clear
1:33 PM 42.8 °F 39.3 °F 24.8 °F 49% 29.86 in 10.0 mi SSE 5.8 mph - N/A   Clear
1:53 PM 44.6 °F 40.7 °F 24.8 °F 46% 29.86 in 10.0 mi SSE 6.9 mph - N/A   Clear
2:13 PM 44.6 °F 41.4 °F 24.8 °F 46% 29.86 in 10.0 mi SSW 5.8 mph - N/A   Clear
2:34 PM 44.6 °F 42.2 °F 24.8 °F 46% 29.86 in 10.0 mi South 4.6 mph - N/A   Clear
2:53 PM 44.6 °F 41.4 °F 24.8 °F 46% 29.87 in 10.0 mi South 5.8 mph - N/A   Clear
3:14 PM 44.6 °F 41.4 °F 26.6 °F 49% 29.87 in 10.0 mi SSW 5.8 mph - N/A   Clear
3:33 PM 44.6 °F 40.7 °F 26.6 °F 49% 29.87 in 10.0 mi SSE 6.9 mph - N/A   Clear
3:53 PM 44.6 °F 40.7 °F 26.6 °F 49% 29.87 in 10.0 mi South 6.9 mph - N/A   Clear
4:13 PM 44.6 °F 40.2 °F 26.6 °F 49% 29.88 in 10.0 mi SSW 8.1 mph - N/A   Clear
4:34 PM 44.6 °F 40.2 °F 26.6 °F 49% 29.88 in 10.0 mi SSW 8.1 mph - N/A   Clear
4:53 PM 44.6 °F 43.1 °F 26.6 °F 49% 29.88 in 10.0 mi SW 3.5 mph - N/A   Clear
5:13 PM 44.6 °F 43.1 °F 26.6 °F 49% 29.89 in 10.0 mi South 3.5 mph - N/A   Clear
5:34 PM 46.4 °F 45.2 °F 26.6 °F 46% 29.89 in 10.0 mi SSE 3.5 mph - N/A   Clear
5:53 PM 44.6 °F - 26.6 °F 49% 29.88 in 10.0 mi Calm Calm - N/A   Clear
6:13 PM 44.6 °F - 26.6 °F 49% 29.89 in 10.0 mi Calm Calm - N/A   Clear
6:34 PM 42.8 °F - 26.6 °F 53% 29.90 in 10.0 mi Calm Calm - N/A   Clear
6:54 PM 42.8 °F - 26.6 °F 53% 29.90 in 10.0 mi Calm Calm - N/A   Clear
7:13 PM 41.0 °F - 26.6 °F 57% 29.90 in 10.0 mi Calm Calm - N/A   Scattered Clouds
7:33 PM 39.2 °F - 26.6 °F 61% 29.91 in 10.0 mi Calm Calm - N/A   Scattered Clouds
7:54 PM 37.4 °F - 26.6 °F 65% 29.92 in 10.0 mi Calm Calm - N/A   Mostly Cloudy
8:13 PM 37.4 °F - 26.6 °F 65% 29.92 in 10.0 mi Calm Calm - N/A   Mostly Cloudy
8:34 PM 37.4 °F - 24.8 °F 60% 29.93 in 10.0 mi Calm Calm - N/A   Mostly Cloudy
8:54 PM 35.6 °F - 24.8 °F 65% 29.94 in 10.0 mi Calm Calm - N/A   Overcast
9:13 PM 35.6 °F - 24.8 °F 65% 29.94 in 10.0 mi Calm Calm - N/A   Overcast
9:34 PM 37.4 °F - 26.6 °F 65% 29.95 in 10.0 mi Calm Calm - N/A   Mostly Cloudy
9:54 PM 35.6 °F - 26.6 °F 70% 29.95 in 10.0 mi Calm Calm - N/A   Mostly Cloudy
10:13 PM 37.4 °F - 26.6 °F 65% 29.95 in 10.0 mi Calm Calm - N/A   Mostly Cloudy
10:33 PM 33.8 °F 30.8 °F 24.8 °F 70% 29.95 in 10.0 mi NE 3.5 mph - N/A   Mostly Cloudy
10:54 PM 33.8 °F - 24.8 °F 70% 29.95 in 10.0 mi Calm Calm - N/A   Mostly Cloudy
11:11 PM 33.8 °F 29.6 °F 24.8 °F 70% 29.96 in 10.0 mi NE 4.6 mph - N/A   Overcast
11:34 PM 32.0 °F 28.7 °F 24.8 °F 75% 29.97 in 10.0 mi East 3.5 mph - N/A   Mostly Cloudy
11:53 PM 33.8 °F 29.6 °F 24.8 °F 70% 29.97 in 10.0 mi East 4.6 mph - N/A   Scattered Clouds